Гроздьово, Т/Х сензор - сонда, 04.01.2023 Measurements

Back to Overview

Timestamp Temperature Temperature Probe Humidity
5/4/2026 5:40:35 PM 18,7 C 10,7 C 53.0%
5/4/2026 5:33:31 PM 18,7 C 10,7 C 52.0%
5/4/2026 5:26:30 PM 18,5 C 10,7 C 54.0%
5/4/2026 5:19:26 PM 18,3 C 10,7 C 54.0%
5/4/2026 5:12:20 PM 18,3 C 10,7 C 53.0%
5/4/2026 5:05:20 PM 18,4 C 10,6 C 53.0%
5/4/2026 4:58:18 PM 18,5 C 10,6 C 53.0%
5/4/2026 4:51:14 PM 18,6 C 10,6 C 53.0%
5/4/2026 4:44:11 PM 18,7 C 10,5 C 52.0%
5/4/2026 4:37:08 PM 18,8 C 10,5 C 53.0%
5/4/2026 4:30:06 PM 19,0 C 10,5 C 53.0%
5/4/2026 4:23:03 PM 19,1 C 10,4 C 52.0%
5/4/2026 4:16:00 PM 19,3 C 10,4 C 52.0%
5/4/2026 4:09:04 PM 19,6 C 10,3 C 53.0%
5/4/2026 4:01:54 PM 19,9 C 10,3 C 53.0%
5/4/2026 3:54:51 PM 20,2 C 10,3 C 52.0%
5/4/2026 3:47:49 PM 20,6 C 10,2 C 52.0%
5/4/2026 3:40:46 PM 21,1 C 10,2 C 52.0%
5/4/2026 3:33:42 PM 21,3 C 10,2 C 54.0%
5/4/2026 3:26:46 PM 21,5 C 10,1 C 53.0%
5/4/2026 3:19:37 PM 21,4 C 10,1 C 54.0%
5/4/2026 3:12:41 PM 21,1 C 10,0 C 55.0%
5/4/2026 2:51:25 PM 19,6 C 9,9 C 57.0%
5/4/2026 2:44:21 PM 19,5 C 9,9 C 57.0%
5/4/2026 2:37:18 PM 19,4 C 9,8 C 57.0%
5/4/2026 2:30:17 PM 19,5 C 9,8 C 56.0%
5/4/2026 2:23:14 PM 19,9 C 9,7 C 55.0%
5/4/2026 2:16:11 PM 20,5 C 9,7 C 55.0%
5/4/2026 2:09:07 PM 21,0 C 9,7 C 57.0%
5/4/2026 2:02:03 PM 21,3 C 9,6 C 57.0%
5/4/2026 1:55:00 PM 21,1 C 9,6 C 58.0%
5/4/2026 1:47:59 PM 20,9 C 9,5 C 59.0%
5/4/2026 1:40:55 PM 20,6 C 9,5 C 61.0%
5/4/2026 1:33:51 PM 19,7 C 9,5 C 62.0%
5/4/2026 1:26:55 PM 19,2 C 9,4 C 61.0%
5/4/2026 1:19:47 PM 19,1 C 9,4 C 60.0%
5/4/2026 1:12:44 PM 19,3 C 9,3 C 60.0%
5/4/2026 1:05:41 PM 19,6 C 9,3 C 60.0%
5/4/2026 12:58:38 PM 19,5 C 9,2 C 61.0%
5/4/2026 12:51:35 PM 19,4 C 9,2 C 61.0%
5/4/2026 12:44:33 PM 19,4 C 9,2 C 62.0%
5/4/2026 12:37:30 PM 19,4 C 9,1 C 62.0%
5/4/2026 12:30:26 PM 19,6 C 9,1 C 61.0%
5/4/2026 12:23:22 PM 19,7 C 9,1 C 61.0%
5/4/2026 12:16:20 PM 19,6 C 9,0 C 64.0%
5/4/2026 12:09:17 PM 19,3 C 9,0 C 63.0%
5/4/2026 12:08:53 PM 19,3 C 9,0 C 57.0%
5/4/2026 12:03:39 PM 19,1 C 9,0 C 64.0%
5/4/2026 11:56:37 AM 18,8 C 8,9 C 66.0%
5/4/2026 11:49:35 AM 18,5 C 8,9 C 66.0%
5/4/2026 11:42:39 AM 17,7 C 8,9 C 68.0%
5/4/2026 11:28:25 AM 17,4 C 8,8 C 69.0%
5/4/2026 11:21:29 AM 17,4 C 8,8 C 69.0%
5/4/2026 11:14:19 AM 17,2 C 8,8 C 69.0%
5/4/2026 11:07:17 AM 17,1 C 8,7 C 67.0%
5/4/2026 11:00:14 AM 17,3 C 8,7 C 70.0%
5/4/2026 10:53:11 AM 17,4 C 8,7 C 71.0%
5/4/2026 10:46:07 AM 17,4 C 8,7 C 73.0%
5/4/2026 10:39:03 AM 17,4 C 8,7 C 73.0%
5/4/2026 10:32:00 AM 17,4 C 8,7 C 74.0%
5/4/2026 10:28:32 AM 17,2 C 8,6 C 79.0%
5/4/2026 10:21:20 AM 16,7 C 8,6 C 80.0%
5/4/2026 10:14:18 AM 16,2 C 8,6 C 81.0%
5/4/2026 10:07:15 AM 15,7 C 8,6 C 82.0%
5/4/2026 10:00:12 AM 15,0 C 8,6 C 83.0%
5/4/2026 9:53:09 AM 14,3 C 8,6 C 84.0%
5/4/2026 9:46:04 AM 13,5 C 8,6 C 84.0%
5/4/2026 9:39:08 AM 12,9 C 8,6 C 84.0%
5/4/2026 9:31:59 AM 12,3 C 8,6 C 84.0%
5/4/2026 9:24:56 AM 11,7 C 8,6 C 85.0%
5/4/2026 9:17:53 AM 11,1 C 8,6 C 85.0%
5/4/2026 9:10:51 AM 10,6 C 8,6 C 85.0%
5/4/2026 9:03:47 AM 10,0 C 8,6 C 86.0%
5/4/2026 8:56:44 AM 9,2 C 8,6 C 86.0%
5/4/2026 8:49:42 AM 8,4 C 8,6 C 86.0%
5/4/2026 8:42:40 AM 7,6 C 8,6 C 85.0%
5/4/2026 8:35:37 AM 6,9 C 8,6 C 85.0%
5/4/2026 8:28:34 AM 6,2 C 8,6 C 85.0%
5/4/2026 8:21:31 AM 5,7 C 8,7 C 84.0%
5/4/2026 8:14:27 AM 5,2 C 8,7 C 84.0%
5/4/2026 8:07:25 AM 4,7 C 8,7 C 84.0%
5/4/2026 8:00:21 AM 4,1 C 8,7 C 84.0%
5/4/2026 7:53:17 AM 3,6 C 8,7 C 84.0%
5/4/2026 7:46:14 AM 3,1 C 8,7 C 84.0%
5/4/2026 7:39:12 AM 2,6 C 8,7 C 83.0%
5/4/2026 7:32:08 AM 2,3 C 8,7 C 83.0%
5/4/2026 7:25:03 AM 2,0 C 8,8 C 82.0%
5/4/2026 7:18:01 AM 1,7 C 8,8 C 82.0%
5/4/2026 7:10:57 AM 1,5 C 8,8 C 82.0%
5/4/2026 7:03:54 AM 1,3 C 8,8 C 82.0%
5/4/2026 6:56:51 AM 1,1 C 8,8 C 82.0%
5/4/2026 6:49:49 AM 0,9 C 8,8 C 82.0%
5/4/2026 6:42:44 AM 0,8 C 8,9 C 82.0%
5/4/2026 6:35:40 AM 0,8 C 8,9 C 81.0%
5/4/2026 6:28:38 AM 0,7 C 8,9 C 81.0%
5/4/2026 6:21:35 AM 0,6 C 8,9 C 81.0%
5/4/2026 6:14:33 AM 0,6 C 8,9 C 81.0%
5/4/2026 6:07:32 AM 0,6 C 9,0 C 81.0%
5/4/2026 6:00:28 AM 0,5 C 9,0 C 81.0%
5/4/2026 5:53:23 AM 0,5 C 9,0 C 81.0%
5/4/2026 5:46:20 AM 0,5 C 9,0 C 80.0%
5/4/2026 5:39:16 AM 0,5 C 9,0 C 80.0%
5/4/2026 5:32:13 AM 0,5 C 9,1 C 80.0%
5/4/2026 5:25:09 AM 0,5 C 9,1 C 80.0%
5/4/2026 5:18:06 AM 0,5 C 9,1 C 80.0%
5/4/2026 5:11:03 AM 0,4 C 9,1 C 80.0%
5/4/2026 5:04:00 AM 0,4 C 9,1 C 80.0%
5/4/2026 4:56:57 AM 0,4 C 9,1 C 80.0%
5/4/2026 4:49:53 AM 0,4 C 9,2 C 80.0%
5/4/2026 4:42:50 AM 0,4 C 9,2 C 80.0%
5/4/2026 4:35:47 AM 0,4 C 9,2 C 80.0%
5/4/2026 4:28:44 AM 0,4 C 9,2 C 80.0%
5/4/2026 4:21:42 AM 0,5 C 9,3 C 80.0%
5/4/2026 4:14:39 AM 0,5 C 9,3 C 80.0%
5/4/2026 4:07:35 AM 0,6 C 9,3 C 79.0%
5/4/2026 4:00:32 AM 0,6 C 9,3 C 79.0%
5/4/2026 3:53:29 AM 0,6 C 9,3 C 79.0%
5/4/2026 3:46:24 AM 0,7 C 9,3 C 79.0%
5/4/2026 3:39:21 AM 0,7 C 9,4 C 79.0%
5/4/2026 3:32:19 AM 0,7 C 9,4 C 79.0%
5/4/2026 3:25:15 AM 0,7 C 9,4 C 79.0%
5/4/2026 3:18:11 AM 0,7 C 9,4 C 79.0%
5/4/2026 3:11:08 AM 0,6 C 9,5 C 79.0%
5/4/2026 3:04:05 AM 0,7 C 9,5 C 79.0%
5/4/2026 2:57:01 AM 0,7 C 9,5 C 78.0%
5/4/2026 2:50:00 AM 0,8 C 9,5 C 78.0%
5/4/2026 2:42:57 AM 0,9 C 9,5 C 78.0%
5/4/2026 2:35:54 AM 1,0 C 9,5 C 78.0%
5/4/2026 2:28:51 AM 1,1 C 9,6 C 78.0%
5/4/2026 2:21:47 AM 1,2 C 9,6 C 78.0%
5/4/2026 2:14:44 AM 1,3 C 9,6 C 78.0%
5/4/2026 2:07:40 AM 1,4 C 9,6 C 78.0%
5/4/2026 2:00:37 AM 1,4 C 9,7 C 78.0%
5/4/2026 1:53:34 AM 1,4 C 9,7 C 77.0%
5/4/2026 1:46:31 AM 1,5 C 9,7 C 77.0%
5/4/2026 1:39:29 AM 1,6 C 9,7 C 77.0%
5/4/2026 1:32:27 AM 1,7 C 9,7 C 77.0%
5/4/2026 1:25:23 AM 1,7 C 9,8 C 77.0%
5/4/2026 1:18:21 AM 1,9 C 9,8 C 77.0%
5/4/2026 1:11:17 AM 1,9 C 9,8 C 77.0%
5/4/2026 1:04:14 AM 2,0 C 9,8 C 77.0%
5/4/2026 12:57:11 AM 2,0 C 9,8 C 77.0%
5/4/2026 12:50:07 AM 2,0 C 9,8 C 76.0%
5/4/2026 12:43:03 AM 2,0 C 9,9 C 76.0%
5/4/2026 12:36:00 AM 2,0 C 9,9 C 76.0%
5/4/2026 12:28:57 AM 2,1 C 9,9 C 76.0%
5/4/2026 12:21:52 AM 2,2 C 9,9 C 76.0%
5/4/2026 12:14:50 AM 2,3 C 9,9 C 75.0%
5/4/2026 12:07:45 AM 2,3 C 10,0 C 75.0%
5/4/2026 12:00:42 AM 2,4 C 10,0 C 75.0%